Regional Weather Roundup
Issued by NWS

Home | Current Version | Previous Version | Text Only | Print | Product List | Glossary Off
Versions: 1 2 3 4 5 6 7 8 9 10 11 12 13 14 15 16 17 18 19 20 21 22 23 24 25 26 27 28 29 30 31 32 33 34 35 36 37 38 39 40 41 42 43 44 45 46 47 48 49 50

000
ASUS43 KLMK 220010
RWRKY
NATIONAL WEATHER SERVICE LOUISVILLE KY
700 PM EST FRI NOV 21 2014

NOTE "FAIR" INDICATES FEW OR NO CLOUDS BELOW 12,000 FEET
WITH NO SIGNIFICANT WEATHER AND/OR OBSTRUCTIONS TO VISIBILITY.

KYZ001>023-026-027-061>063-070>075-220100-
WESTERN AND SOUTH CENTRAL KENTUCKY

CITY           SKY/WX    TMP DP  RH WIND       PRES   REMARKS
PADUCAH        CLOUDY    46  27  47 SE8       30.33R
HENDERSON      CLOUDY    39  21  48 E6        30.37F WCI  35
OWENSBORO      CLOUDY    41  20  43 VRB6      30.39S
HOPKINSVILLE   CLOUDY    46  24  42 E7        30.35S
BOWLING GREEN  MOCLDY    40  19  43 NE6       30.39F
GLASGOW        CLEAR     35  20  55 E5        30.41R WCI  31
$$

KYZ024-025-028>034-038-045-046-053-220100-
NORTH CENTRAL KENTUCKY

CITY           SKY/WX    TMP DP  RH WIND       PRES   REMARKS
LOUISVILLE/SDF MOCLDY    37  13  37 SE3       30.43R
LOUISVILLE/LOU CLEAR     37  13  37 CALM      30.44R
FORT KNOX      CLEAR     34  16  48 VRB5      30.40R WCI  29
$$

KYZ035>037-039>044-047>052-055>060-089>105-220100-
NORTHEAST KENTUCKY

CITY           SKY/WX    TMP DP  RH WIND       PRES   REMARKS
LEXINGTON      CLEAR     31  12  45 E8        30.43F WCI  23
COVINGTON      CLEAR     29  10  45 E6        30.43F WCI  23
FRANKFORT      CLEAR     30  13  49 E6        30.42F WCI  24
$$

KYZ054-064>069-076>088-106>120-220100-
SOUTHEAST KENTUCKY

CITY           SKY/WX    TMP DP  RH WIND       PRES   REMARKS
JACKSON        CLEAR     35   8  32 NE3       30.43S
LONDON         CLEAR     34  16  47 CALM      30.42S
SOMERSET       CLEAR     32  18  55 CALM      30.44R
MIDDLESBORO    CLEAR     33  21  61 CALM      30.44R
MONTICELLO     CLEAR     25  19  80 CALM      30.45R HAZE
$$




USA.gov is the U.S. government's official web portal to all federal, state and local government web resources and services.